User: anonymous   Login
Location: Ellerstadt
(49.4644°N, 8.2615°E)
Time: 23:35:37
(UTC+00:00)
Language:

Cosmos 1959 Rocket - Orbit

View from above orbital plane
View from above orbital plane
View from above satellite
View from above satellite

Ground track
Ground track

The orbit data is extracted from the following two-line orbital elements,

1 19325U 88062B   21128.55954138  .00000026  00000-0  11011-4 0  9994
2 19325  82.9537  46.4307 0032984 210.9725 322.0231 13.77633042611245
Epoch (UTC): 08 May 2021 13:25:44
Eccentricity: 0.0032984
inclination: 82.9537°
perigee height: 948 km
apogee height: 996 km
right ascension of ascending node: 46.4307°
argument of perigee: 210.9725°
revolutions per day: 13.77633042
mean anomaly at epoch: 322.0231°
orbit number at epoch: 61124

The dashed part of the orbit path shows where the satellite is in the earth's shadow,  

DLR